Погода в Фындыклы

Турция     41°16′35″N   41°08′51″E
темп.,
°C
ветер,
м/с
пор.,
м/с
влажн.,
%
обл.,
%
осадки,
мм/ч
давл.,
гПа
погр.,
м
17 августа, ср
ср1700:00+22юз018953 0.2 101470
03:00+21зюз119141 0.7 101484
06:00+22зюз118838 0.4 1013112
09:00+23сз328735 0.4 1012383
12:00+22сз119667 0.2 1012200
15:00+23зсз228642 0.3 1011284
18:00+22зсз228958 0.2 1011311
21:00+22з129048 0.5 1012240
18 августа, чт
чт1800:00+21зюз129141 0.3 1012164
03:00+21зсз118874 0.5 1011240
06:00+21з118830 0.2 1011213
09:00+22зсз228939 0.5 1011274
12:00+22сз129154 0.3 1011190
15:00+22з228754 0.4 1010398
18:00+22з228856 0.3 1010477
21:00+21зюз128876 0.6 1011347
19 августа, пт
пт1900:00+21зюз128971 0.8 1011306
03:00+21зсз118373 1.1 1010140
06:00+20ююв1180100 0.0 1010131
09:00+22з228086 0.1 1010318
12:00+22зсз3384100 0.2 1011460
15:00+22зсз238776 0.6 1010459
18:00+21ююз3486100 0.8 1011273
21:00+21юз1284100 2.6 1012143
20 августа, сб
сб2000:00+20ююв118184 0.0 101185
03:00+20ююв128099 0.0 1011270
06:00+20зюз1179100 0.1 1011190
09:00+21зсз128184 0.2 1012359
12:00+22зсз338471 0.1 1012465
15:00+22зсз238350 0.3 1011546
18:00+22зсз2285100 0.3 1011460
21:00+21юв0181100 0.4 1011214
21 августа, вс
вс2100:00+20ююз118382 0.0 1011205
03:00+20ююв1179100 0.0 101089
06:00+20ююв117624 0.1 101083
09:00+22ссз217411 0.1 1010323
12:00+22сз327928 0.0 1009364
15:00+23зсз227933 0.1 1008250
18:00+22з228569 0.0 1008416
21:00+21з018374 0.0 1009273